Regional Weather Roundup
Issued by NWS

Home | Current Version | Previous Version | Text Only | Print | Product List | Glossary On
Versions: 1 2 3 4 5 6 7 8 9 10 11 12 13 14 15 16 17 18 19 20 21 22 23 24 25 26 27 28 29 30 31 32 33 34 35 36 37 38 39 40 41 42 43 44 45 46 47 48 49 50
000
ASUS44 KFWD 250101
RWRTX
NORTH TEXAS HOURLY WEATHER ROUNDUP
NATIONAL WEATHER SERVICE FORT WORTH TX
800 PM CDT SUN JUL 24 2016

NOTE: "FAIR" INDICATES FEW OR NO CLOUDS BELOW 12,000 FEET WITH NO
SIGNIFICANT WEATHER AND/OR OBSTRUCTIONS TO VISIBILITY.

TXZ118-119-250200-
DALLAS/FORT WORTH METROPLEX

CITY           SKY/WX    TMP DP  RH WIND       PRES   REMARKS
DFW AIRPORT    PTCLDY    95  69  42 SE7       29.88R HX 100
DALLAS LOVE    PTCLDY    97  68  38 SE13      29.88R HX 102
FTW MEACHAM    CLEAR     97  67  37 SE10      29.88S HX 101
DAL-EXECUTIVE  CLEAR     95  69  42 SE12      29.89R HX 100
FTW-ALLIANCE   PTCLDY    95  67  39 SE8       29.88S HX  99
FTW-NAS-JRB    CLEAR     97  65  34 SE10      29.88S HX  99
FTW-SPINKS     CLEAR     93  68  43 SE3       29.91R HX  97
ARLINGTON      CLEAR     95  68  41 SE8       29.89R HX  99
GRAND PRAIRIE  CLEAR     97  64  34 SE6       29.89S HX  99
MESQUITE       CLEAR     93  70  46 SE6       29.89S HX  99
LANCASTER      CLEAR     95  67  39 E6        29.90R HX  99
$$

TXZ091>094-102>105-117-120-121-131>134-250200-
NORTH CENTRAL TEXAS

CITY           SKY/WX    TMP DP  RH WIND       PRES   REMARKS
SHRMAN/DENISON NOT AVBL
BOWIE          CLEAR     92  71  49 CALM      29.91S HX  99
BRIDGEPORT     CLEAR     94  71  47 SE5       29.91R HX 100
DECATUR        CLEAR     92  68  44 E5        29.91S HX  97
DENTON         CLEAR     94  69  44 SE7       29.88S HX  99
MCKINNEY       CLEAR     94  71  47 S5        29.89S HX 101
GREENVILLE     CLEAR     95  66  38 SE5       29.91R HX  98
ROCKWALL       HAZE      94  72  48 S7G17     29.88S VSB 1   HX 102
TERRELL        CLOUDY    92  69  47 SE8       29.90R HX  97
WAXAHACHIE     CLEAR     92  71  49 SE5       29.90S HX  99
CLEBURNE       CLEAR     93  72  49 E8        29.91S HX 100
GRANBURY       CLEAR     97  66  36 E8        29.90R HX 100
$$

TXZ083>090-098>101-113>116-127>130-139>142-154-155-250200-
WESTERN NORTH TEXAS

CITY           SKY/WX    TMP DP  RH WIND       PRES   REMARKS
WICHITA FALLS  CLEAR     94  69  44 SE12      29.89R HX  99
WF-KICKAPOO    CLEAR     96  67  38 E7        29.91R HX  99
VERNON         CLEAR     98  55  23 SE13      29.89R HX  96
ABILENE        CLEAR     96  63  33 SE17      29.92R HX  97
ABILENE-DYESS  CLEAR     97  63  33 E13       29.90R HX  98
CISCO          CLEAR     95  64  36 SE12      29.93S HX  97
GRAHAM         CLEAR     96  65  35 E5        29.89R HX  98
MINERAL WELLS  CLEAR     94  68  42 SE9       29.88R HX  98
STEPHENVILLE   CLEAR     94  63  35 SE5       29.94R HX  95
COMANCHE       CLEAR     94  63  35 SE8       29.92R HX  95
COLEMAN        CLEAR     96  60  30 E10       29.91S HX  95
$$

TXZ143>147-156>162-174-175-250200-
CENTRAL TEXAS

CITY           SKY/WX    TMP DP  RH WIND       PRES   REMARKS
WACO           PTCLDY    96  65  35 SE8       29.88R HX  98
WACO-MCGREGOR  CLEAR     96  69  41 SE8       29.88S HX 102
HILLSBORO      CLEAR     93  70  46 E7        29.89S HX  99
CORSICANA      CLEAR     92  72  51 SE6       29.90S HX  99
MEXIA          PTCLDY    93  68  44 S8        29.89R HX  98
HEARNE         CLEAR     95  71  45 CALM      29.88S HX 101
CAMERON        CLEAR     95  70  43 SE3       29.88R HX 101
TEMPLE         CLEAR     95  69  42 SE8       29.89R HX 100
KILLEEN        CLEAR     94  66  40 E12       29.89S HX  97
KILLEEN-SKYLRK CLEAR     94  70  45 E9        29.89S HX 100
FORT HOOD      CLEAR     94  67  41 SE10      29.87S HX  98
HAMILTON       CLEAR     94  62  34 SE7       29.92S HX  95
$$

TXZ095>097-106>112-122>126-135>138-148>153-164>167-250200-
EAST TEXAS

CITY           SKY/WX    TMP DP  RH WIND       PRES   REMARKS
PARIS          CLOUDY    91  68  46 S6        29.92R HX  95
SULPHUR SPRNGS CLEAR     94  71  47 SE7       29.93R HX 100
MOUNT PLEASANT CLEAR     91  72  54 SE7       29.93R HX  98
GILMER         CLOUDY    87  74  64 E13G23    29.94R HX  95
MINEOLA        PTCLDY    91  72  52 CALM      29.92R HX  98
TYLER          CLOUDY    86  75  69 E5        29.92R HX  95
LONGVIEW       CLOUDY    83  72  69 E16G24    29.94R
MARSHALL       CLOUDY    77  70  79 S5        29.98F
ATHENS         CLOUDY    88  72  58 NE3       29.89S HX  94
PALESTINE      CLEAR     93  73  52 CALM      29.90S HX 101
JACKSONVILLE   PTCLDY    89  71  55 N3        29.94R HX  95
HENDERSON      MOCLDY    83  72  67 E10G16    29.95R
CENTER         LGT RAIN  77  76  95 N6        30.00R
NACOGDOCHES    MOCLDY   N/A N/A N/A E17G24    29.91R
LUFKIN         PTCLDY    89  72  56 S6        29.90S HX  96
$$

SUPPLEMENTAL OBSERVATIONS (CENTRAL)

CITY           SKY/WX    TMP DP  RH WIND       PRES   REMARKS
$$

SUPPLEMENTAL OBSERVATIONS (WEST)

CITY           SKY/WX    TMP DP  RH WIND       PRES   REMARKS
$$

SUPPLEMENTAL OBSERVATIONS (EAST)

CITY           SKY/WX    TMP DP  RH WIND       PRES   REMARKS
$$

SUPPLEMENTAL OBSERVATIONS ARE A COLLECTION OF AUTOMATED INSTRUMENTS
THAT ARE MAINTAINED BY A VARIETY OF FEDERAL AND STATE AGENCIES.
CERTAIN ELEMENTS...SUCH AS HUMIDITY VALUES AND SUSTAINED WIND
SPEEDS...MAY BE APPROXIMATED.





USA.gov is the U.S. government's official web portal to all federal, state and local government web resources and services.